Ellicott, CO

12:14 AM MST on December 18, 2017 (GMT -0700)
Ellicott

Weather History for KABH - June, 2014

Change the Weather History Date:

Wednesday, June 4, 2014

  Actual Average (KCOS) Record (KCOS)
Temperature  
Mean Temperature 67 °F -  
Max Temperature 84 °F 74 °F 92 °F (2010)
Min Temperature 50 °F 47 °F 36 °F (1897)
Cooling Degree Days 2    
Growing Degree Days 17 (Base 50)    
Moisture  
Dew Point 44 °F    
Average Humidity 47    
Maximum Humidity 80    
Minimum Humidity 15    
Precipitation  
Precipitation 0.00 in - - ()
Sea Level Pressure  
Sea Level Pressure 29.78 in    
Wind  
Wind Speed 12 mph (ESE)    
Max Wind Speed 28 mph    
Max Gust Speed 36 mph    
Visibility 10 miles    
Events Thunderstorm    
Averages and records for this station are not official NWS values.
T = Trace of Precipitation, MM = Missing Value Source: NWS Daily Summary

Daily Weather History Graph

Daily Weather History Graph

Search for Another Location

Airport or City:

Trip Planner

Search our weather history database for the weather conditions in past years. The results will help you decide how hot, cold, wet, or windy it might be!

Date:

Astronomy

Jun. 04, 2014 Rise Set
Actual Time 5:33 AM MDT 8:18 PM MDT
Civil Twilight 5:01 AM MDT 8:49 PM MDT
Nautical Twilight 4:22 AM MDT 9:29 PM MDT
Astronomical Twilight 3:37 AM MDT 10:14 PM MDT
Moon 11:52 AM MDT (6/4) 12:21 AM MDT (6/4)
Length of Visible Light 15h 48m
Length of Day
14h 45m
Waxing Crescent, 39% of the Moon is Illuminated
Jun 4
Waxing Crescent
Jun 5
First Quarter
Jun 12
Full
Jun 19
Last Quarter
Jun 27
New

Hourly Weather History & Observations

Time (MDT) Temp. Dew Point Humidity Pressure Visibility Wind Dir Wind Speed Gust Speed Precip Events Conditions
12:56 AM 62.1 °F 45.0 °F 53% 29.72 in 10.0 mi ENE 10.4 mph - N/A   Clear
1:56 AM 59.0 °F 46.0 °F 62% 29.73 in 10.0 mi ENE 6.9 mph - N/A   Clear
2:56 AM 59.0 °F 46.0 °F 62% 29.73 in 10.0 mi ENE 12.7 mph - N/A   Clear
3:56 AM 57.0 °F 44.1 °F 62% 29.77 in 10.0 mi SE 4.6 mph - N/A   Clear
4:56 AM 55.9 °F 45.0 °F 67% 29.79 in 10.0 mi Calm Calm - N/A   Clear
5:56 AM 50.0 °F 44.1 °F 80% 29.83 in 10.0 mi North 6.9 mph - N/A   Clear
6:56 AM 57.9 °F 46.0 °F 65% 29.81 in 10.0 mi North 9.2 mph - N/A   Clear
7:56 AM 68.0 °F 45.0 °F 43% 29.80 in 10.0 mi NNE 10.4 mph - N/A   Clear
8:56 AM 75.0 °F 41.0 °F 29% 29.81 in 10.0 mi ENE 9.2 mph - N/A   Clear
9:56 AM 77.0 °F 37.9 °F 24% 29.82 in 10.0 mi East 9.2 mph - N/A   Clear
10:56 AM 78.1 °F 35.1 °F 21% 29.81 in 10.0 mi SSE 9.2 mph - N/A   Clear
11:56 AM 80.1 °F 34.0 °F 19% 29.80 in 10.0 mi SE 15.0 mph 21.9 mph N/A   Clear
12:56 PM 81.0 °F 36.0 °F 20% 29.78 in 10.0 mi SSE 13.8 mph 24.2 mph N/A   Clear
1:56 PM 82.9 °F 35.1 °F 18% 29.77 in 10.0 mi South 19.6 mph 25.3 mph N/A   Clear
2:56 PM 84.0 °F 33.1 °F 16% 29.75 in 10.0 mi SSE 18.4 mph 24.2 mph N/A   Clear
3:56 PM 84.0 °F 30.9 °F 15% 29.72 in 10.0 mi South 23.0 mph 29.9 mph N/A   Clear
4:56 PM 82.9 °F 30.9 °F 15% 29.70 in 10.0 mi SSE 20.7 mph 26.5 mph N/A   Clear
5:56 PM 82.0 °F 41.0 °F 23% 29.71 in 10.0 mi SSE 21.9 mph 29.9 mph N/A   Clear
6:56 PM 78.1 °F 44.1 °F 30% 29.69 in 10.0 mi SSE 25.3 mph 32.2 mph N/A   Clear
7:56 PM 71.1 °F 52.0 °F 51% 29.70 in 10.0 mi SSE 21.9 mph 28.8 mph N/A   Clear
8:56 PM 68.0 °F 55.0 °F 63% 29.68 in 10.0 mi SSE 17.3 mph - N/A   Partly Cloudy
9:48 PM 66.2 °F 55.4 °F 68% 29.98 in 10.0 mi SE 12.7 mph - N/A Thunderstorm Thunderstorm
9:56 PM 66.0 °F 55.9 °F 70% 29.74 in 10.0 mi East 11.5 mph - N/A Thunderstorm Thunderstorm
10:05 PM 64.4 °F 55.4 °F 73% 30.00 in 10.0 mi East 10.4 mph - N/A   Partly Cloudy
10:56 PM 64.9 °F 57.9 °F 78% 29.76 in 10.0 mi ENE 11.5 mph - N/A   Overcast
11:05 PM 64.4 °F 57.2 °F 77% 30.01 in 10.0 mi East 16.1 mph - N/A   Overcast
11:56 PM 57.0 °F 50.0 °F 77% 29.78 in 10.0 mi East 27.6 mph 35.7 mph N/A   Mostly Cloudy